Погода в Мерло

Аргентина     34°40′37″S   58°42′53″W
темп.,
°C
ветер,
м/с
пор.,
м/с
влажн.,
%
обл.,
%
осадки,
мм/ч
давл.,
гПа
погр.,
м
26 июля, пн
пн2600:00+11ю29850 0.0 1014308
03:00+9ю39845 0.0 1015308
06:00+8ю3106997 0.0 1015325
09:00+8ююз2864100 0.0 1018252
12:00+13ююз47420 0.0 1018737
15:00+14ююз56365 0.0 10171240
18:00+11ююз3848100 0.0 1019663
21:00+9юз411537 0.0 1021617
27 июля, вт
вт2700:00+7юз4114818 0.0 1022686
03:00+5зюз411500 0.0 1023804
06:00+4зюз413480 0.0 1022879
09:00+4з514450 0.0 1022633
12:00+9зюз610350 0.0 10221168
15:00+10юз6104217 0.0 10221670
18:00+9юз510505 0.0 10221316
21:00+7зюз4115397 0.0 10241008
28 июля, ср
ср2800:00+6юз4115787 0.0 1025877
03:00+6ююз61073100 0.0 10261007
06:00+5юз5117988 0.0 1026820
09:00+5юз512795 0.0 1028718
12:00+9ююз695478 0.0 10301657
15:00+11юз574391 0.0 10282078
18:00+9зюз485719 0.0 1028627
21:00+6юз38675 0.0 1029335
29 июля, чт
чт2900:00+5зюз24720 0.0 1029117
03:00+5з25720 0.0 1029158
06:00+4з25740 0.0 1028136
09:00+4зсз25670 0.0 1028171
12:00+10зсз35460 0.0 1028716
15:00+13сз34370 0.0 10271105
18:00+10ссз23490 0.0 102660
21:00+8ссз25570 0.0 1027103
30 июля, пт
пт3000:00+7с27650 0.0 1027163
03:00+6ссз39690 0.0 1027236
06:00+5с39730 0.0 1027249
09:00+6с310710 0.0 1028310
12:00+12с58490 0.0 1028636
15:00+15ссз58400 0.0 1025973
18:00+12ссз39510 0.0 1025408
21:00+10с411610 0.0 1026422